| time (UTC) | temp F | wind direction | speed MPH | gust MPH | rain 1hr in | rain 24hr in | rain mn in | humidity % | barometer mb |
| 20260508061503 | 41 | 294 | 6.0 | 9.0 | 0.00 | 0.00 | 0.00 | 47 | 1015.5 |
| 20260508060003 | 41 | 276 | 5.0 | 9.0 | 0.00 | 0.00 | 0.00 | 48 | 1015.6 |
| 20260508054501 | 41 | 260 | 4.0 | 8.0 | 0.00 | 0.00 | 0.00 | 48 | 1015.7 |
| 20260508053001 | 42 | 281 | 2.0 | 6.0 | 0.00 | 0.00 | 0.00 | 48 | 1016.0 |
| 20260508051501 | 42 | 267 | 4.0 | 7.0 | 0.00 | 0.00 | 0.00 | 46 | 1016.0 |
| 20260508050002 | 42 | 265 | 5.0 | 9.0 | 0.00 | 0.00 | 0.00 | 46 | 1016.1 |
| 20260508044502 | 42 | 263 | 3.0 | 8.0 | 0.00 | 0.00 | 0.00 | 46 | 1016.1 |
| 20260508043001 | 44 | 265 | 4.0 | 10.0 | 0.00 | 0.00 | 0.00 | 43 | 1016.2 |
| 20260508041504 | 45 | 256 | 3.0 | 8.0 | 0.00 | 0.00 | 0.00 | 42 | 1016.1 |
| 20260508040005 | 46 | 254 | 3.0 | 7.0 | 0.00 | 0.00 | 0.00 | 41 | 1016.1 |
| 20260508034502 | 47 | 252 | 2.0 | 6.0 | 0.00 | 0.00 | 0.00 | 39 | 1016.0 |
| 20260508033004 | 48 | 267 | 4.0 | 7.0 | 0.00 | 0.00 | 0.00 | 38 | 1015.8 |
| 20260508031506 | 49 | 267 | 3.0 | 6.0 | 0.00 | 0.00 | 0.00 | 37 | 1015.5 |
| 20260508030002 | 50 | 235 | 2.0 | 7.0 | 0.00 | 0.00 | 0.00 | 35 | 1015.3 |
| 20260508024501 | 52 | 317 | 2.0 | 5.0 | 0.00 | 0.00 | 0.00 | 32 | 1015.2 |
| 20260508023003 | 56 | 334 | 1.0 | 3.0 | 0.00 | 0.00 | 0.00 | 28 | 1015.0 |
| 20260508021502 | 58 | 334 | 0.0 | 2.0 | 0.00 | 0.00 | 0.00 | 34 | 1014.7 |
| 20260508020001 | 59 | 334 | 2.0 | 4.0 | 0.00 | 0.00 | 0.00 | 36 | 1014.6 |
| 20260508014502 | 60 | 313 | 2.0 | 7.0 | 0.00 | 0.00 | 0.00 | 24 | 1014.4 |
| 20260508013001 | 61 | 298 | 2.0 | 9.0 | 0.00 | 0.00 | 0.00 | 23 | 1014.1 |
| 20260508011502 | 62 | 263 | 2.0 | 6.0 | 0.00 | 0.00 | 0.00 | 24 | 1013.7 |
| 20260508010004 | 62 | 39 | 3.0 | 5.0 | 0.00 | 0.00 | 0.00 | 37 | 1013.8 |
| 20260508004502 | 64 | 82 | 4.0 | 9.0 | 0.00 | 0.00 | 0.00 | 35 | 1013.5 |
| 20260508003002 | 64 | 47 | 3.0 | 10.0 | 0.00 | 0.00 | 0.00 | 34 | 1013.4 |
| 20260508001503 | 64 | 63 | 6.0 | 10.0 | 0.00 | 0.00 | 0.00 | 36 | 1013.4 |
| 20260508000006 | 63 | 40 | 7.0 | 15.0 | 0.00 | 0.00 | 0.00 | 37 | 1013.4 |
| 20260507234502 | 64 | 93 | 7.0 | 14.0 | 0.00 | 0.00 | 0.00 | 37 | 1013.3 |
| 20260507233003 | 64 | 117 | 7.0 | 16.0 | 0.00 | 0.00 | 0.00 | 37 | 1013.5 |
| 20260507231502 | 64 | 113 | 6.0 | 15.0 | 0.00 | 0.00 | 0.00 | 36 | 1013.6 |
| 20260507230011 | 64 | 123 | 7.0 | 13.0 | 0.00 | 0.00 | 0.00 | 36 | 1013.6 |
| 20260507224502 | 64 | 75 | 7.0 | 17.0 | 0.00 | 0.00 | 0.00 | 37 | 1013.7 |
| 20260507223002 | 64 | 166 | 9.0 | 16.0 | 0.00 | 0.00 | 0.00 | 36 | 1013.6 |
| 20260507221501 | 64 | 111 | 7.0 | 16.0 | 0.00 | 0.00 | 0.00 | 36 | 1013.8 |
| 20260507220001 | 65 | 127 | 8.0 | 15.0 | 0.00 | 0.00 | 0.00 | 34 | 1014.1 |
| 20260507214501 | 65 | 102 | 11.0 | 16.0 | 0.00 | 0.00 | 0.00 | 34 | 1014.2 |
| 20260507213002 | 65 | 94 | 8.0 | 15.0 | 0.00 | 0.00 | 0.00 | 35 | 1014.5 |
| 20260507211502 | 64 | 84 | 8.0 | 17.0 | 0.00 | 0.00 | 0.00 | 35 | 1014.7 |
| 20260507210003 | 65 | 65 | 12.0 | 20.0 | 0.00 | 0.00 | 0.00 | 35 | 1014.9 |
| 20260507204501 | 63 | 37 | 10.0 | 21.0 | 0.00 | 0.00 | 0.00 | 36 | 1015.3 |
| 20260507203002 | 64 | 89 | 10.0 | 18.0 | 0.00 | 0.00 | 0.00 | 35 | 1015.4 |
| 20260507201505 | 64 | 140 | 10.0 | 17.0 | 0.00 | 0.00 | 0.00 | 34 | 1015.6 |
| 20260507200003 | 64 | 66 | 8.0 | 18.0 | 0.00 | 0.00 | 0.00 | 33 | 1016.0 |
| 20260507194502 | 65 | 69 | 10.0 | 21.0 | 0.00 | 0.00 | 0.00 | 33 | 1016.2 |
| 20260507193002 | 64 | 126 | 8.0 | 18.0 | 0.00 | 0.00 | 0.00 | 32 | 1016.2 |
| 20260507191604 | 63 | 96 | 5.0 | 15.0 | 0.00 | 0.00 | 0.00 | 33 | 1016.3 |
| 20260507191501 | 64 | 138 | 6.0 | 15.0 | 0.00 | 0.00 | 0.00 | 34 | 1016.3 |
| 20260507190006 | 63 | 136 | 4.0 | 16.0 | 0.00 | 0.00 | 0.00 | 33 | 1016.6 |
| 20260507184501 | 63 | 112 | 9.0 | 14.0 | 0.00 | 0.00 | 0.00 | 33 | 1016.7 |
| 20260507183002 | 62 | 86 | 7.0 | 16.0 | 0.00 | 0.00 | 0.00 | 35 | 1016.8 |
| 20260507181502 | 62 | 96 | 5.0 | 15.0 | 0.00 | 0.00 | 0.00 | 35 | 1016.9 |
| 20260507180106 | 62 | 103 | 8.0 | 16.0 | 0.00 | 0.00 | 0.00 | 36 | 1017.2 |
| 20260507174605 | 60 | 92 | 7.0 | 15.0 | 0.00 | 0.00 | 0.00 | 38 | 1017.4 |
| 20260507173118 | 61 | 161 | 7.0 | 14.0 | 0.00 | 0.00 | 0.00 | 41 | 1017.6 |
| 20260507171559 | 59 | 119 | 6.0 | 14.0 | 0.00 | 0.00 | 0.00 | 37 | 1017.7 |
| 20260507170100 | 58 | 88 | 8.0 | 12.0 | 0.00 | 0.00 | 0.00 | 42 | 1017.8 |
| 20260507170002 | 58 | 144 | 7.0 | 12.0 | 0.00 | 0.00 | 0.00 | 42 | 1017.8 |
| 20260507164633 | 58 | 103 | 7.0 | 13.0 | 0.00 | 0.00 | 0.00 | 43 | 1018.2 |
| 20260507164502 | 58 | 83 | 7.0 | 13.0 | 0.00 | 0.00 | 0.00 | 43 | 1018.1 |
| 20260507163102 | 57 | 57 | 6.0 | 12.0 | 0.00 | 0.00 | 0.00 | 44 | 1018.2 |
| 20260507163002 | 57 | 72 | 7.0 | 12.0 | 0.00 | 0.00 | 0.00 | 44 | 1018.3 |
| 20260507161500 | 56 | 75 | 5.0 | 13.0 | 0.00 | 0.00 | 0.00 | 41 | 1018.4 |
| 20260507160002 | 55 | 146 | 5.0 | 12.0 | 0.00 | 0.00 | 0.00 | 42 | 1018.5 |
| 20260507154503 | 54 | 131 | 6.0 | 10.0 | 0.00 | 0.00 | 0.00 | 45 | 1018.8 |
| 20260507153001 | 51 | 73 | 3.0 | 10.0 | 0.00 | 0.00 | 0.00 | 50 | 1018.8 |
| 20260507151502 | 50 | 67 | 3.0 | 11.0 | 0.00 | 0.00 | 0.00 | 54 | 1018.8 |
| 20260507150101 | 50 | 140 | 4.0 | 8.0 | 0.00 | 0.00 | 0.00 | 55 | 1018.9 |
| 20260507144602 | 48 | 98 | 3.0 | 8.0 | 0.00 | 0.00 | 0.00 | 57 | 1019.1 |
| 20260507143119 | 46 | 123 | 3.0 | 8.0 | 0.00 | 0.00 | 0.00 | 57 | 1019.3 |
| 20260507141604 | 45 | 110 | 2.0 | 7.0 | 0.00 | 0.00 | 0.00 | 58 | 1019.3 |
| 20260507140059 | 42 | 88 | 0.0 | 5.0 | 0.00 | 0.00 | 0.00 | 63 | 1019.5 |
| 20260507140002 | 42 | 238 | 0.0 | 4.0 | 0.00 | 0.00 | 0.00 | 63 | 1019.5 |
| 20260507134501 | 39 | 288 | 2.0 | 5.0 | 0.00 | 0.00 | 0.00 | 64 | 1019.6 |
| 20260507133001 | 37 | 308 | 2.0 | 8.0 | 0.00 | 0.00 | 0.00 | 66 | 1019.5 |
| 20260507131607 | 35 | 261 | 4.0 | 9.0 | 0.00 | 0.00 | 0.00 | 67 | 1019.4 |
| 20260507130002 | 33 | 274 | 4.0 | 10.0 | 0.00 | 0.00 | 0.00 | 68 | 1019.3 |
| 20260507124505 | 32 | 255 | 4.0 | 8.0 | 0.00 | 0.00 | 0.00 | 68 | 1019.2 |
| 20260507123001 | 32 | 280 | 4.0 | 8.0 | 0.00 | 0.00 | 0.00 | 68 | 1019.1 |
| 20260507121505 | 31 | 264 | 5.0 | 10.0 | 0.00 | 0.00 | 0.00 | 68 | 1019.1 |
| 20260507120006 | 31 | 268 | 4.0 | 7.0 | 0.00 | 0.00 | 0.00 | 67 | 1019.0 |
| 20260507114501 | 31 | 261 | 3.0 | 8.0 | 0.00 | 0.00 | 0.00 | 65 | 1019.2 |
| 20260507113129 | 31 | 281 | 3.0 | 10.0 | 0.00 | 0.00 | 0.00 | 65 | 1019.1 |
| 20260507113005 | 31 | 242 | 3.0 | 10.0 | 0.00 | 0.00 | 0.00 | 65 | 1019.1 |
| 20260507111503 | 30 | 273 | 3.0 | 6.0 | 0.00 | 0.00 | 0.00 | 66 | 1019.1 |
| 20260507110100 | 30 | 262 | 2.0 | 8.0 | 0.00 | 0.00 | 0.00 | 65 | 1018.8 |
| 20260507110001 | 30 | 268 | 2.0 | 8.0 | 0.00 | 0.00 | 0.00 | 65 | 1018.9 |
| 20260507104600 | 31 | 266 | 4.0 | 7.0 | 0.00 | 0.00 | 0.00 | 65 | 1018.8 |
| 20260507103059 | 31 | 288 | 2.0 | 9.0 | 0.00 | 0.00 | 0.00 | 59 | 1018.8 |
| 20260507101559 | 31 | 294 | 3.0 | 8.0 | 0.00 | 0.00 | 0.00 | 59 | 1018.9 |
| 20260507100120 | 32 | 277 | 2.0 | 7.0 | 0.00 | 0.00 | 0.00 | 58 | 1018.7 |
| 20260507100004 | 32 | 289 | 3.0 | 7.0 | 0.00 | 0.00 | 0.00 | 58 | 1018.7 |
| 20260507094501 | 32 | 269 | 3.0 | 7.0 | 0.00 | 0.00 | 0.00 | 57 | 1018.7 |
| 20260507093001 | 34 | 290 | 1.0 | 3.0 | 0.00 | 0.00 | 0.00 | 53 | 1018.6 |
| 20260507091635 | 34 | 317 | 2.0 | 7.0 | 0.00 | 0.00 | 0.00 | 54 | 1018.5 |
| 20260507090001 | 33 | 262 | 2.0 | 4.0 | 0.00 | 0.00 | 0.00 | 54 | 1018.5 |
| 20260507084610 | 33 | 308 | 1.0 | 7.0 | 0.00 | 0.00 | 0.00 | 54 | 1017.9 |
| 20260507083059 | 35 | 272 | 2.0 | 4.0 | 0.00 | 0.00 | 0.00 | 50 | 1017.8 |
| 20260507081602 | 35 | 262 | 1.0 | 4.0 | 0.00 | 0.00 | 0.00 | 48 | 1017.9 |
| 20260507080002 | 34 | 294 | 2.0 | 5.0 | 0.00 | 0.00 | 0.00 | 49 | 1017.8 |
| 20260507074500 | 36 | 297 | 0.0 | 4.0 | 0.00 | 0.00 | 0.00 | 46 | 1017.6 |
| 20260507073001 | 37 | 276 | 2.0 | 6.0 | 0.00 | 0.00 | 0.00 | 45 | 1017.6 |
| 20260507071501 | 38 | 265 | 2.0 | 4.0 | 0.00 | 0.00 | 0.00 | 43 | 1017.7 |
| 20260507070106 | 39 | 275 | 2.0 | 6.0 | 0.00 | 0.00 | 0.00 | 43 | 1017.5 |
| 20260507070009 | 39 | 284 | 2.0 | 6.0 | 0.00 | 0.00 | 0.00 | 43 | 1017.5 |
| 20260507064501 | 40 | 323 | 1.0 | 6.0 | 0.00 | 0.00 | 0.00 | 41 | 1017.4 |
| 20260507063001 | 40 | 277 | 2.0 | 9.0 | 0.00 | 0.00 | 0.00 | 41 | 1017.3 |